Location: Newark
(39.0622°N, 106.5590°E)
Time: 15:05:33
(UTC+00:00)

UWE-3 - Pass Details

Date: 26 February 2020
Orbit: 585 x 683 km, 97.6° (Epoch: 09 April)

Event Time Altitude Azimuth Distance (km) Brightness Sun altitude
Rises 21:38:35 0° 23° (NNE) 3,050 ? -22.5°
Reaches altitude 10° 21:41:04 10° 34° (NE) 2,133 ? -22.0°
Maximum altitude 21:45:12 30° 96° (E) 1,205 ? -21.2°
Drops below altitude 10° 21:49:17 10° 158° (SSE) 2,110 ? -20.4°
Sets 21:51:43 0° 169° (SSE) 3,011 ? -20.0°
